Flag for Norway Weather past 2 weeks in Rygge, Norway

Now
53 °F

Passing clouds.


Feels Like: 50 °F
Forecast: 53 / 57 °F
Wind: 9 mph from Southwest

Location: Rygge

Current Time: Oct 26, 2014 at 2:52:33 AM

Latest Report: Oct 26, 2014 at 2:00 AM


Visibility: 9 mi

Pressure: 29.81 "Hg

Humidity: 84%

Dew point: 48 °F

Location of RyggeLocation

Historic Weather in Rygge — Graph

°F

Rygge temperature yesterday

Maximum temperature yesterday: 54 °F (at 1:00 PM)
Minimum temperature yesterday: 49 °F (at 9:00 AM)
Average temperature yesterday: 52 °F

Past Weeks' High & Low Weather Summary

 TemperatureHumidityPressure
High60 °F (Oct 20, 4:00 PM)100% (Oct 13, 7:00 AM)30.12 "Hg (Oct 13, 7:00 AM)
Low33 °F (Oct 16, 5:00 PM)62% (Oct 20, 3:00 PM)29.32 "Hg (Oct 20, 2:00 AM)
Average47 °F93%29.83 "Hg
* Reported Oct 11 2:00 AM — Oct 26 2:00 AM, Rygge, Weather by CustomWeather, © 2014

Note: Actual official high and low records may vary slightly from our data, if they occured in-between our weather recording intervals... More about our weather records

Advertising

Rygge weather history for previous 24 hours

 ConditionsComfort  
Time TempWeatherWind HumidityBarometerVisibility
2:00 AM
Oct 26
53 °FPassing clouds.10 mph82%29.81 "Hg11 mi
1:00 AM53 °FPassing clouds.9 mph83%29.83 "Hg11 mi
12:00 AM53 °FOvercast.9 mph83%29.83 "Hg11 mi
11:00 PM
Oct 25
53 °FOvercast.9 mph84%29.83 "Hg11 mi
10:00 PM52 °FOvercast.8 mph85%29.84 "Hg13 mi
9:00 PM52 °FOvercast.7 mph83%29.85 "Hg14 mi
8:00 PM52 °FPassing clouds.9 mph83%29.84 "Hg14 mi
7:00 PM51 °FPassing clouds.8 mph83%29.84 "Hg14 mi
6:00 PM51 °FClear.7 mph85%29.83 "Hg14 mi
5:00 PM52 °FSunny.6 mph81%29.83 "Hg19 mi
4:00 PM53 °FPassing clouds.7 mph78%29.84 "Hg19 mi
3:00 PM53 °FPartly sunny.7 mph86%29.84 "Hg17 mi
2:00 PM54 °FOvercast.5 mph85%29.84 "Hg19 mi
1:00 PM54 °FPassing clouds.6 mph81%29.85 "Hg22 mi
12:00 PM52 °FPartly sunny.5 mph82%29.85 "Hg25 mi
11:00 AM52 °FSunny.7 mph87%29.83 "Hg19 mi
10:00 AM51 °FSunny.3 mph90%29.82 "Hg28 mi
9:00 AM49 °FSunny.3 mph96%29.80 "Hg17 mi
8:00 AM50 °FPassing clouds.3 mph96%29.78 "Hg25 mi
7:00 AM51 °FLow clouds.5 mph98%29.76 "Hg14 mi
6:00 AM52 °FRain showers. Overcast.5 mph98%29.75 "Hg4 mi
5:00 AM53 °FLight rain. Low clouds.5 mph98%29.75 "Hg2 mi
4:00 AM53 °FDrizzle. Dense fog.5 mph99%29.75 "Hg2 mi
3:00 AM54 °FLow clouds.6 mph98%29.77 "Hg5 mi
2:00 AM53 °FDrizzle. Low clouds.7 mph98%29.78 "Hg6 mi
Weather by CustomWeather, © 2014

See weather overviewHow to use our weather pages